Regional Weather Roundup
Issued by NWS Green Bay, WI

Home | Current Version | Previous Version | Graphics & Text | Print | Product List | Glossary Off
Versions: 1 2 3 4 5 6 7 8 9 10 11 12 13 14 15 16 17 18 19 20 21 22 23 24 25 26 27 28 29 30 31 32 33 34 35 36 37 38 39 40 41 42 43 44 45 46 47 48 49 50

000
ASUS43 KGRB 221259
RWRGRB

NORTH-CENTRAL AND NORTHEAST WISCONSIN REGIONAL WEATHER ROUNDUP
NATIONAL WEATHER SERVICE GREEN BAY WI
800 AM CDT TUE APR 22 2014

WIZ005-009-010>012-018-019-221400-
NORTH CENTRAL WISCONSIN

CITY           SKY/WX    TMP DP  RH WIND       PRES   REMARKS
IRONWOOD       CLOUDY    36  25  64 NW7       30.00R
MANITOWISH WTR NOT AVBL
ARBOR VITAE    NOT AVBL
EAGLE RIVER    NOT AVBL
LAND O LAKES   NOT AVBL
RHINELANDER    CLOUDY    34  24  67 N8G18     29.99R
PHILLIPS       NOT AVBL
ANTIGO         NOT AVBL
TOMAHAWK       NOT AVBL
MERRILL        NOT AVBL
$$

WIZ013-073-221400-
NORTHEAST WISCONSIN

CITY           SKY/WX    TMP DP  RH WIND       PRES   REMARKS
IRON MOUNTAIN  CLOUDY    38  26  62 NW17G28   29.92R
MARINETTE      PTSUNNY   41  28  60 NW15G21   29.91S
$$

WIZ017-030-035>037-045-221400-
CENTRAL WISCONSIN

CITY           SKY/WX    TMP DP  RH WIND       PRES   REMARKS
MEDFORD        NOT AVBL
WAUSAU         CLOUDY    38  25  59 N13G22    29.98R
MOSINEE        NOT AVBL
MARSHFIELD     CLOUDY    37  28  70 NW15      30.02R
WISC RAPIDS    PTSUNNY   39  27  62 NW12      30.03R
STEVENS POINT  NOT AVBL
WAUPACA        NOT AVBL
SHAWANO        NOT AVBL
CLINTONVILLE   NOT AVBL
$$

WIZ038-039-048-051-221400-
FOX VALLEY

CITY           SKY/WX    TMP DP  RH WIND       PRES   REMARKS
NWS GREEN BAY  SUNNY     42  30  62 NW15      29.95S
APPLETON       MOSUNNY   39  27  60 NW15G21   29.96S
OSHKOSH        SUNNY     43  28  55 NW20      29.96S
FOND DU LAC    SUNNY     43  29  57 NW10G22   29.97R
$$

WIZ022-050-052-221400-
EAST CENTRAL WISCONSIN

CITY           SKY/WX    TMP DP  RH WIND       PRES   REMARKS
STURGEON BAY   CLOUDY    39  28  65 NW14      29.92S
MANITOWOC      NOT AVBL
SHEBOYGAN      SUNNY     42  29  59 NW17G26   29.95S
$$

LMZ563-521-522-541>543-221400-
LAKESHORE

STATION/POSITION TIME  TEMP    WIND        PRES    VSBY  WAVE
                       AIR SEA DIR/SP/G                  HT/PER
                 (UTC) (F)     (DEG/KT/KT) (MB)    (MI)  (FT/S)
SHEBOYGAN LKSHOR 1200   42     320/ 15/ 18 1014.4R
KEWAUNEE LKSHORE 1200   39     320/ 10/ 16 1014.3R
TWO RIVERS CG    1200   40                   N/A       6   0
NORTHPORT PIER   1200   35     310/ 11/ 14 1012.5R
SISTER BAY LKSHO 1200   37     330/ 16/ 18   N/A
STURGEON BAY CG  1200   38     330/  7     1013.1      6   0
MENOMINEE LKSHOR 1200   39     310/ 18/ 22 1013.6R
$$



USA.gov is the U.S. government's official web portal to all federal, state and local government web resources and services.